Вернуться в каталог

SL-12 DEB

LostHEO
NORAD 44540·DEBRIS·🇷🇺 Russia

Запущен Sep 2, 2010 с Baikonur Cosmodrome

Loading…

Ближайшие Пролёты (ближайшие 24 часа)

TLE

УстаревшееSource: Space-Track

Эпоха: Apr 29, 2022, 18:06 UTC

1 44540U 10041X   22119.75455721  .00027365  00000-0  94522-2 0  9991
2 44540  64.5894 292.5535 5843739  10.2753 357.7818  4.24139782 70537

Отслеживайте SL-12 DEB в реальном времени с AllMySat

Download on the App Store